SCRIPT_RESULTS Banner
Decoded METAR for OIZB

by Dr. Günther Eichhorn

Decoded METAR for OIZB provided by aerobaticsweb.org
Current time: Wednesday, 5 Oct, 2022, 06:06 UTC
(This may take a minute, please be patient)


The most recent METAR observation from OIZB in our system was generated at 2022/10/05 06:00

Original METAR code

2022/10/05 06:00
OIZB 050600Z 35031G41KT 4000 SA NSC 30/M00 Q1015
METAR Observation for: OIZB
Date/Time of Observation: 5 October 2022, 06:00 UTC (5 October 2022, 10:30 IRDT)
Wind: From 350° at 31 kts (57 km/h) gusting to 41 kts (76 km/h)
Visibility: 4000 m (2.5 sm)
Weather: Sand
Cloud Cover Outlook: No significant clouds

Remarks:

    Temperature/Dewpoint 30.0° C (86.0° F), Dewpoint: 0.0° C (32.0° F), RH: 14%
    Altimeter 1015 hPa/mbar (29.98" Hg)

24 Hour Summary

Time (UTC) Temperature
°C (°F)
Dew Point
°C (°F)
Pressure
Inches (hPa)
Wind
mph (km/h)
Weather
00:00 5 October 25 (77 ) -2 (28 ) 29.91 (1013) NNW 22 (35)
00:00 5 October No Data
02:00 5 October 23 (73 ) -1 (30 ) 29.94 (1014) NNW 22 (35)
03:00 5 October 24 (75 ) -1 (30 ) 29.94 (1014) NNW 24 (39)
04:00 5 October 26 (78 ) -1 (30 ) 29.97 (1015) N 31 (50)
05:00 5 October 29 (84 ) -1 (30 ) 29.97 (1015) N 36 (58) sand
06:00 5 October 30 (86 ) 0 (32 ) 29.97 (1015) N 36 (58) sand
07:00 4 October 34 (93 ) 2 (35 ) 29.97 (1015) N 16 (26)
08:00 4 October 35 (95 ) 2 (35 ) 29.94 (1014) N 21 (34)
09:00 4 October 35 (95 ) 2 (35 ) 29.91 (1013) N 21 (34)
10:00 4 October 36 (96 ) 2 (35 ) 29.91 (1013) N 22 (35)
11:00 4 October 36 (96 ) 0 (32 ) 29.88 (1012) N 18 (29)
12:00 4 October 36 (96 ) 1 (33 ) 29.88 (1012) N 21 (34)
13:00 4 October 35 (95 ) 0 (32 ) 29.88 (1012) N 18 (29)
14:00 4 October 31 (87 ) -1 (30 ) 29.88 (1012) N 9 (14)
15:00 4 October 29 (84 ) -1 (30 ) 29.91 (1013) NNW 9 (14)
16:00 4 October 26 (78 ) 0 (32 ) 29.94 (1014) NW 9 (14)
17:00 4 October 26 (78 ) 0 (32 ) 29.94 (1014) NW 12 (19)
18:00 4 October 24 (75 ) 0 (32 ) 29.94 (1014) NW 12 (19)
19:00 4 October 22 (71 ) 0 (32 ) 29.94 (1014) NW 9 (14)
20:00 4 October 22 (71 ) 0 (32 ) 29.94 (1014) WNW 9 (14)
21:00 4 October 21 (69 ) -1 (30 ) 29.94 (1014) WNW 9 (14)
00:00 5 October No Data
00:00 5 October No Data
The information presented here is taken from products produced by the U.S. National Weather Service and other national and international agencies. Landings.com does not present this as official information. Please refer to official weather briefings for flight critical information.


access provided by Dr. Guenther Eichhorn at aerobaticsweb.org